Terug naar catalogus

STARLINK-36707

ActiefCommunicatieSSO
NORAD 67706·PAYLOAD·🇺🇸 United States

Gelanceerd Feb 7, 2026 vanaf Vandenberg Space Force Base

Loading…

Volgende Passages (komende 24 uur)

TLE

VersSource: CelesTrak SupGP

Epoch: Sep 15, 2026, 03:51 UTC

1 67706C 26025P   26258.16090278 -.00016309  00000+0 -50625-3 0  2586
2 67706  97.2850   8.1214 0000914  85.9128  13.2732 15.33449831    12

Volg STARLINK-36707 in realtime met AllMySat

Download on the App Store